Regional Weather Roundup
Issued by NWS Sterling, VA

Home | Current Version | Previous Version | Text Only | Print | Product List | Glossary Off
Versions: 1 2 3 4 5 6 7 8 9 10 11 12 13 14 15 16 17 18 19 20 21 22 23 24 25 26 27

000
ASUS41 KLWX 022211
RWRLWX

REGIONAL WEATHER ROUNDUP
NATIONAL WEATHER SERVICE BALTIMORE MD/WASHINGTON DC
600 PM EDT MON MAY 02 2016

Note: "FAIR" indicates few or no clouds below 12,000 feet
with no significant weather and/or obstructions to visibility.
 TC=TEMPERATURE CELSIUS

 * =Non NWS site. Station does not report precipitation (e.g. rain,
    snow, etc.), thunder, or fog.

DCZ001-MDZ009-015-VAZ040>042-051-053>054-022300-
WASHINGTON METRO

CITY           SKY/WX    TMP DP  RH WIND       PRES   REMARKS
WASHINGTON NAT PTSUNNY   75  65  70 CALM      29.83
DULLES         PTSUNNY   77  65  66 SE7       29.80F
ANDREWS AFB    SUNNY     75  66  72 SE3       29.83F
FT BELVOIR     FAIR      74  68  80 CALM      29.81F
QUANTICO       FAIR      77  66  68 E7        29.80F
LEESBURG*      FAIR      81  68  65 SW8       29.81F
MANASSAS*      RAIN      77  66  69 SE9       29.82F FOG
GAITHERSBURG*  SUNNY     75  63  64 SE8       29.87F

$$

MDZ006>007-011-014-022300-
BALTIMORE METRO

CITY           SKY/WX    TMP DP  RH WIND       PRES   REMARKS
BWI AIRPORT    PTSUNNY   70  61  73 E8        29.84F
MD SCIENCE CTR   N/A     68  59  73 MISG      29.83F
MARTIN STATE   MOSUNNY   70  64  83 SE3       29.88F
ANNAPOLIS      SUNNY     66  62  87 SE7       29.85F
FORT MEADE*    MOSUNNY   73  63  68 E10       29.86F

$$

MDZ012-015-019>023-022300-
MARYLAND EASTERN SHORE

CITY           SKY/WX    TMP DP  RH WIND       PRES   REMARKS
OCEAN CITY     SUNNY     68  63  84 S7        29.88F
SALISBURY      SUNNY     79  66  64 SW7       29.86F
CAMBRIDGE*     SUNNY     77  64  65 SW3       29.86F
EASTON*        MOSUNNY  N/A N/A N/A SW7       29.90F

$$

MDZ017>025-022300-
SOUTHERN MARYLAND

CITY           SKY/WX    TMP DP  RH WIND       PRES   REMARKS
PATUXENT RIVER MOSUNNY   69  63  81 SE10      29.84F
ST INIGOES     SUNNY     74  66  76 E9        29.84F
LEONARDTOWN*   SUNNY     73  64  73 E5        29.86F

$$

MDZ003>005-022300-
NORTH CENTRAL MARYLAND

CITY           SKY/WX    TMP DP  RH WIND       PRES   REMARKS
FREDERICK*     MOSUNNY   79  66  65 SE7       29.83F
HAGERSTOWN APT SUNNY     81  52  36 W10       29.81F
WESTMINSTER*   SUNNY     79  70  73 S8        29.84F

$$

MDZ501>502-022300-
WESTERN MARYLAND

CITY           SKY/WX    TMP DP  RH WIND       PRES   REMARKS
OAKLAND*       MOSUNNY   66  48  52 W12G17    29.92F
CUMBERLAND*    MOSUNNY   81  48  32 W8        29.85F

$$

VAZ025>031-022300-
SHENANDOAH VALLEY

CITY           SKY/WX    TMP DP  RH WIND       PRES   REMARKS
WINCHESTER*    FAIR      79  63  57 SE7       29.80F
FRONT ROYAL*   MOCLDY    81  63  54 CALM      29.79F
LURAY*         MOCLDY    81  57  44 S6        29.80F
NEW MARKET*    CLOUDY    79  60  51 CALM      29.78F
STAUNTON*      LGT RAIN  78  58  49 S6        29.85S
WAYNESBORO*    CLOUDY    76  59  54 S10G16    29.87R

$$

WVZ021-048>050-054>055-022300-
EASTERN WEST VIRGINIA PANHANDLE

CITY           SKY/WX    TMP DP  RH WIND       PRES   REMARKS
MARTINSBURG    FAIR      83  52  34 NW5       29.79F
PETERSBURG*    FAIR      79  54  42 W7        29.83R

$$

VAZ036>039-050-022300-
CENTRAL FOOTHILLS

CITY           SKY/WX    TMP DP  RH WIND       PRES   REMARKS
CHARLOTTESVILL FAIR      81  60  48 SW14      29.82R
CULPEPER*      FAIR      84  64  49 S6        29.79F
ORANGE*        FAIR      82  57  42 SW6       29.83S
GORDONSVILLE*  FAIR      81  62  52 S7G17     29.81R
WARRENTON*     FAIR      85  56  37 SE7       29.79S

$$

VAZ055>057-022300-
NORTH AND CENTRAL PIEDMONT

CITY           SKY/WX    TMP DP  RH WIND       PRES   REMARKS
FREDERICKSBRG* FAIR      84  66  54 S10       29.80F
STAFFORD*      FAIR      83  61  47 S8        29.84F

$$

NCZ024-NYZ072-PAZ021-071-VAZ022-071-022300-
OTHER REGIONAL OBSERVATIONS

CITY           SKY/WX    TMP DP  RH WIND       PRES   REMARKS
NEW YORK CITY  MOSUNNY   59  50  72 CALM      29.92R
PHILADELPHIA   PTSUNNY   64  55  72 CALM      29.91F
PITTSBURGH     CLOUDY    59  48  67 N10       29.91F
ROANOKE        PTSUNNY   75  58  55 NE8       29.88R
RICHMOND       PTSUNNY   78  64  61 NW8       29.84S
RALEIGH        CLOUDY    68  66  93 CALM      29.92F

$$

ANZ530>537-022300-
MARINE OBSERVATIONS

STATION/POSITION TIME  TEMP    WIND        PRES
                       AIR SEA DIR/SP/G
                 (UTC) (F)     (DEG/KT/KT) (MB)
THOMAS PT LIGHT  2200   67 59   60/  5/  6 1012.0F
BALT KEY BRIDGE  2100   64      70/  5/  6 1011.3F
COVE POINT       2100   63     180/ 12/ 13 1011.8F
LEWISETTA        2100   63 63   90/  6/  7 1010.8F
SOLOMONS ISLAND  2100   64 62   90/  9/ 11   N/A
PINEY POINT      2124          150/  8/  8   N/A

$$





USA.gov is the U.S. government's official web portal to all federal, state and local government web resources and services.